Zurück zum Katalog

STARLINK-33725

AktivKommunikationVLEO
NORAD 63717·PAYLOAD·🇺🇸 United States

Gestartet Apr 28, 2025 von Vandenberg Space Force Base

Loading…

Nächste Überflüge (nächste 24 Stunden)

TLE

AktuellSource: CelesTrak SupGP

Epoche: Sep 15, 2026, 03:13 UTC

1 63717C 25087W   26258.13451389 -.00024944  00000+0 -73723-3 0  2580
2 63717  53.1595  58.5319 0001136  86.7236 127.0429 15.34391787    12

Verfolge STARLINK-33725 in Echtzeit mit AllMySat

Download on the App Store